Regional Weather Roundup
Issued by NWS

Home | Current Version | Previous Version | Graphics & Text | Print | Product List | Glossary On
Versions: 1 2 3 4 5 6 7 8 9 10 11 12 13 14 15 16 17 18 19 20 21 22 23 24 25 26 27
000
ASUS45 KSLC 200910
RWRUT

UTAH REGIONAL WEATHER ROUNDUP
NATIONAL WEATHER SERVICE SALT LAKE CITY UT
300 AM MDT THU JUL 20 2017

UTZ001>011-023>025-201000-

NORTHERN UTAH

CITY           SKY/WX    TMP DP  RH WIND       PRES   REMARKS
BRIGHAM CITY   MOCLDY    74  53  48 S3        30.06R
HILL AFB       MOCLDY    74  53  48 E8        30.08F
LOGAN          MOCLDY    70  53  54 CALM      30.06S
OGDEN          PTCLDY    76  54  46 SE8       30.05S
SALT LAKE CITY MOCLDY    80  57  45 SE17      30.03S
TOOELE VALLEY  MOCLDY    77  55  47 S13       30.04S
WENDOVER       PTCLDY    84  53  34 S7        29.98F
HEBER CITY     MOCLDY    63  52  67 CALM      30.18F
WEST JORDAN    MOCLDY    75  62  65 S12       30.08F

$$

UTZ011>015-024>027-201000-

CENTRAL/NORTHEAST UTAH

CITY           SKY/WX    TMP DP  RH WIND       PRES   REMARKS
PROVO AIRPORT  MOCLDY    70  57  63 SE10      30.10F
MOAB/CANYONLAN PTCLDY    75  58  55 E7        30.09R
DELTA          PTCLDY    72  52  49 S8        30.10S
PRICE          PTCLDY    71  51  49 N5        30.21S
ROOSEVELT      CLOUDY    63  59  88 CALM      30.22F
VERNAL         CLOUDY    64  60  87 N6        30.20F

$$

UTZ013>016-019>022-027-201000-

SOUTHERN UTAH

CITY           SKY/WX    TMP DP  RH WIND       PRES   REMARKS
BRYCE CANYON   CLEAR     54  51  90 CALM      30.37S
CEDAR CITY     PTCLDY    67  60  78 SW9       30.19R
MILFORD        PTCLDY    71  58  63 S13       30.13S
ST GEORGE      PTSUNNY   79  62  56 SE3       30.03S
HANKSVILLE     PTCLDY    72  52  49 NE3       30.12R
BLANDING       CLOUDY    68  56  64 SW12      30.36F

$$

REGIONAL REPORTS     COLORADO/ARIZONA

CITY           SKY/WX    TMP DP  RH WIND       PRES   REMARKS
CRAIG, CO      CLOUDY    61  54  77 E5        30.28S
GRAND JUNCTION CLOUDY    70  61  73 SE20      30.17R
RIFLE, CO      CLOUDY    68  57  68 CALM      30.26F
MONTROSE, CO   CLOUDY    65  60  84 E5        30.28R
CORTEZ, CO     CLOUDY    65  57  75 VRB3      30.28R
COLORADO CITY    N/A     68  64  88 SE5       30.20S
PAGE, AZ       CLEAR     75  58  55 SE8       30.13S
GRAND CANYON   CLEAR     57  55  93 CALM      30.32F
KINGMAN, AZ    PTCLDY    73  65  75 SE10      30.07F
FLAGSTAFF, AZ  PTCLDY    54  53  97 SW3       30.36S

$$

REGIONAL REPORTS    NEVADA/IDAHO/WYOMING

CITY           SKY/WX    TMP DP  RH WIND       PRES   REMARKS
LAS VEGAS, NV  MOCLDY    85  66  53 CALM      29.95F
ELY, NY        CLEAR     68  52  56 S15       30.21S
ELKO, NV       PTCLDY    61  28  28 CALM      30.08F
POCATELLO, ID  PTCLDY    63  48  58 N7        30.03S
BURLEY, ID     CLEAR     61  53  75 CALM      29.99R
FORT BRIDGER,    N/A     61  47  61 W7        30.30S
EVANSTON, WY   CLOUDY    60  50  69 S7        30.28S
ROCK SPRINGS,  CLOUDY    63  52  67 SE17      30.26F
KEMMERER, WY     N/A     57  46  67 N5        30.30S

$$




USA.gov is the U.S. government's official web portal to all federal, state and local government web resources and services.